Regional Weather Roundup
Issued by NWS

Home | Current Version | Previous Version | Graphics & Text | Print | Product List | Glossary On
Versions: 1 2 3 4 5 6 7 8 9 10 11 12 13 14 15 16 17 18 19 20 21 22 23 24 25 26 27 28 29 30 31 32 33 34 35 36 37 38 39 40 41 42 43 44 45 46 47 48 49 50
000
ASUS43 KOAX 021202
RWRNE

WEATHER ROUNDUP FOR NEBRASKA
NATIONAL WEATHER SERVICE OMAHA NE
600 AM CST MON MAR 02 2015

NOTES: SATELLITE DATA IS BEING USED TO AUGMENT CLOUD COVER ABOVE
       12000 FEET.
       "FAIR" INDICATES FEW OR NO CLOUDS BELOW 12,000 FEET WITH NO
       SIGNIFICANT WEATHER AND/OR OBSTRUCTIONS TO VISIBILITY.

  * THESE STATIONS DO NOT REPORT WEATHER SUCH AS RAIN...SNOW OR FOG.

NEZ001>004-019>022-054>056-021300-
NEBRASKA PANHANDLE

CITY           SKY/WX    TMP DP  RH WIND       PRES   REMARKS
SCOTTSBLUFF    CLOUDY    30  19  63 SE12      30.07F WCI  20
6HR MIN TEMP:  25; 6HR MAX TEMP:  30;

ALLIANCE       MOCLDY    23  15  71 S10       30.09F WCI  12
6HR MIN TEMP:  20; 6HR MAX TEMP:  25;

CHADRON        CLOUDY    31  16  54 S20       30.06F WCI  19
6HR MIN TEMP:  20; 6HR MAX TEMP:  32;

KIMBALL        CLOUDY    25  21  84 S13       30.04F WCI  14
SIDNEY         CLOUDY    26  19  74 S15       30.11F WCI  14
6HR MIN TEMP:  21; 6HR MAX TEMP:  26;

$$

NEZ057>060-069>072-079>082-021300-
SOUTHWEST NEBRASKA

CITY           SKY/WX    TMP DP  RH WIND       PRES   REMARKS
NORTH PLATTE   CLOUDY    24  14  65 E7        30.25F WCI  16
6HR MIN TEMP:  20; 6HR MAX TEMP:  25;

IMPERIAL         N/A     30  17  58 S17       30.21F WCI  18
6HR MIN TEMP:  24; 6HR MAX TEMP:  30;

LEXINGTON      CLOUDY    29  16  57 SE7       30.31S WCI  22
MCCOOK         CLOUDY    31  22  69 S16       30.30R WCI  20
6HR MIN TEMP:  31; 6HR MAX TEMP:  32;

OGALLALA       MOCLDY    26  19  77 SE5       30.20R WCI  20
$$

NEZ005>010-023>029-035>040-094-021300-
NORTH CENTRAL NEBRASKA

CITY           SKY/WX    TMP DP  RH WIND       PRES   REMARKS
VALENTINE      CLOUDY    20  10  65 S13       30.23F WCI   7
6HR MIN TEMP:  14; 6HR MAX TEMP:  20;

AINSWORTH      MOCLDY    21  11  64 S14       30.26S WCI   8
BROKEN BOW     CLOUDY    25  12  58 SE10      30.29F WCI  15
6HR MIN TEMP:  15; 6HR MAX TEMP:  25;

O`NEILL        PTCLDY    18  12  76 SE6       30.34F WCI  10
ORD            MOCLDY    22  11  62 SE7       30.33F WCI  13
6HR MIN TEMP:  14; 6HR MAX TEMP:  22;

$$

NEZ041-046>049-061>064-073>077-083>087-021300-
SOUTH CENTRAL NEBRASKA

CITY           SKY/WX    TMP DP  RH WIND       PRES   REMARKS
GRAND ISLAND   CLOUDY    26  13  57 E9        30.38F WCI  17
6HR MIN TEMP:  24; 6HR MAX TEMP:  27;

AURORA         MOCLDY    26  14  62 E8        30.39R WCI  17
HASTINGS       CLOUDY    28  15  58 SE8       30.36R WCI  20
6HR MIN TEMP:  27; 6HR MAX TEMP:  30;

HEBRON         CLOUDY    28  23  81 CALM      30.41R
HOLDREGE       CLOUDY    29  18  62 SE3       30.32F
KEARNEY *      CLOUDY    28  12  50 SE8       30.34F WCI  20
YORK           MOCLDY    25  16  68 SE9       30.41R WCI  15
$$

NEZ011>018-030>034-042>045-021300-
NORTHEAST NEBRASKA

CITY           SKY/WX    TMP DP  RH WIND       PRES   REMARKS
NORFOLK        PTCLDY    12   9  87 E3        30.41F
6HR MIN TEMP:  12; 6HR MAX TEMP:  22;

ALBION         PTCLDY    14   8  76 CALM      30.39F
BLAIR          CLEAR     23  15  71 NE5       30.46R WCI  17
COLUMBUS *     PTCLDY    18   5  57 E6        30.44S WCI   9
FREMONT        PTCLDY    21  15  76 CALM      30.47R
TEKAMAH        PTCLDY    15  10  80 CALM      30.49F
6HR MIN TEMP:  15; 6HR MAX TEMP:  20;

WAYNE          PTCLDY     7   3  82 SW3       30.45F
$$

NEZ050>053-065>068-078-088>093-021300-
SOUTHEAST NEBRASKA

CITY           SKY/WX    TMP DP  RH WIND       PRES   REMARKS
LINCOLN        PTCLDY    24  15  68 CALM      30.46S
6HR MIN TEMP:  22; 6HR MAX TEMP:  27;

OMAHA EPPLEY   MOCLDY    19  15  84 E3        30.49R
6HR MIN TEMP:  18; 6HR MAX TEMP:  25;

BEATRICE       MOCLDY    26  20  77 E3        30.42F
FALLS CITY     CLOUDY    23  20  88 NE3       30.47R
6HR MIN TEMP:  22; 6HR MAX TEMP:  27;

NEBRASKA CITY  MOCLDY    24  15  69 CALM      30.46S
PLATTSMOUTH    PTCLDY    23  13  65 E6        30.46S WCI  16
$$

NEZ044-045-051>053-067-021300-
OMAHA AREA

CITY           SKY/WX    TMP DP  RH WIND       PRES   REMARKS
OMAHA EPPLEY   MOCLDY    19  15  84 E3        30.49R
6HR MIN TEMP:  18; 6HR MAX TEMP:  25;

BLAIR          CLEAR     23  15  71 NE5       30.46R WCI  17
FREMONT        PTCLDY    21  15  76 CALM      30.47R
MILLARD        CLEAR     21  15  79 CALM      30.48R
OFFUTT AFB     FAIR      21  14  73 NE5       30.47S WCI  15
PLATTSMOUTH    PTCLDY    23  13  65 E6        30.46S WCI  16
WAHOO          FAIR      18  12  79 NE3       30.46S
$$



USA.gov is the U.S. government's official web portal to all federal, state and local government web resources and services.